Theta_e
298 298 298 298 299 299 299 299 298 297 297 296 296 299 301 301 303 303 303 303 300 300 299 298 297 298 298 296 292 291 291 292 291 281 283 282 282 282 282 284 284 283 284
297 297 297 297 297 297 297 297 296 296 295 295 294 294 298 299 300 300 300 301 298 297 297 296 296 297 296 295 290 289 289 289 289 280 280 281 281 282 282 282 282 282 281
296 296 296 295 296 296 296 296 295 295 294 292 292 291 294 295 296 297 298 298 298 298 297 294 295 294 293 292 289 289 288 287 287 281 279 280 279 282 281 282 280 280 281
294 294 294 294 294 295 295 294 293 293 293 291 290 290 289 291 291 291 291 293 294 295 294 294 294 293 293 290 288 288 286 285 284 283 279 279 279 280 280 278 278 280 280
291 292 292 292 293 292 292 291 290 290 289 289 288 287 287 287 287 286 288 290 290 291 290 290 291 291 290 290 288 286 285 285 282 280 279 278 278 277 277 279 278 279 280
288 288 289 288 287 287 288 288 288 288 287 287 286 286 286 286 289 291 289 287 288 288 288 287 286 286 287 290 290 290 287 284 282 281 280 278 277 278 279 278 278 277 276
285 285 285 285 285 286 286 286 286 287 286 286 285 284 284 284 289 291 290 286 287 287 287 286 284 285 285 286 289 290 289 290 288 283 279 279 278 280 280 279 280 279 278
284 283 284 284 284 285 284 285 285 284 284 283 283 283 282 283 289 290 290 287 286 286 286 285 285 284 284 284 285 285 285 286 285 284 282 282 282 282 282 282 281 280 279
283 283 283 282 281 282 282 283 283 281 281 280 279 280 279 281 287 289 289 286 285 284 285 284 284 283 285 287 284 282 282 283 286 287 287 287 287 286 284 281 279 277 274
282 283 282 281 279 279 280 281 279 275 280 279 280 278 281 283 287 288 288 286 284 283 283 283 283 283 286 288 283 282 281 282 283 284 285 286 286 286 286 282 280 276 271
280 280 280 279 278 278 278 275 275 279 281 283 282 283 283 283 284 287 289 285 284 282 282 281 282 286 287 288 285 283 283 283 284 282 282 282 282 283 282 280 280 277 272
278 277 276 275 275 278 274 275 272 276 282 283 282 282 281 281 283 285 287 289 286 282 281 281 282 286 287 288 285 286 287 285 282 280 280 279 280 279 278 278 277 276 275
274 274 274 273 276 273 271 274 276 273 279 281 280 281 281 280 281 284 286 288 287 281 282 282 283 286 287 287 286 287 285 282 280 278 278 278 278 277 275 273 272 271 270
277 276 277 276 277 276 277 275 275 275 278 279 279 280 280 279 280 281 283 285 285 282 283 282 283 285 286 285 284 285 282 281 280 279 278 276 276 274 272 270 268 267 266
277 279 278 277 275 276 275 275 275 274 276 278 279 279 279 278 280 283 283 284 283 282 281 281 281 282 282 283 283 283 280 279 278 276 275 273 273 273 271 269 267 264 263
273 276 278 279 278 276 279 279 281 284 285 284 284 284 276 282 283 284 285 286 285 285 279 279 280 280 281 282 281 279 279 279 277 276 275 274 273 272 269 267 265 264 263
271 272 273 276 279 279 274 274 273 276 284 285 286 286 286 284 284 284 285 286 286 285 278 278 279 280 279 278 278 278 277 278 277 276 274 273 273 272 269 267 265 263 262
267 269 272 274 279 278 273 273 272 271 270 273 280 283 285 285 285 285 285 285 283 283 280 279 278 277 276 276 276 274 273 273 274 273 273 272 271 270 268 266 265 263 263
263 266 269 274 278 276 274 272 272 273 274 273 276 279 278 282 285 285 285 283 281 280 279 278 276 276 275 275 275 275 274 272 272 271 271 270 269 268 266 266 265 264 262
263 266 270 273 276 274 274 273 272 274 272 273 274 273 274 275 276 275 276 277 279 278 279 278 278 276 276 276 274 272 271 270 269 269 268 268 267 267 266 264 264 261 260
265 267 270 273 273 274 276 273 271 274 274 269 270 274 278 272 271 270 269 268 269 270 271 273 272 271 272 271 270 269 268 268 267 266 265 264 264 263 264 264 263 262 261
266 266 266 269 271 272 273 273 274 272 271 268 266 267 272 267 267 266 264 263 262 262 263 265 264 263 263 265 265 266 265 265 263 263 262 262 261 262 262 261 260 260 258
265 266 265 266 268 269 269 268 269 269 267 266 265 264 264 263 262 261 260 259 260 259 259 260 261 260 259 259 260 261 262 261 259 259 260 260 260 260 260 259 259 258 257
264 264 265 264 265 265 265 265 265 264 264 263 262 262 261 261 260 260 259 259 259 258 257 257 257 256 256 256 256 257 258 258 260 260 260 259 258 258 257 255 257 257 257
262 262 262 262 262 262 262 262 262 262 261 261 260 260 259 259 259 258 258 257 256 256 255 254 253 253 253 252 251 252 253 257 253 254 252 253 254 256 255 255 253 251 252
260 261 260 261 260 260 260 260 260 260 260 260 259 259 258 258 258 257 257 256 256 255 254 251 250 249 250 249 249 253 255 259 255 255 249 248 247 246 246 248 250 250 252
Wind_Speed
6 5 4 4 4 4 4 5 4 4 6 6 7 7 9 9 8 9 10 9 11 11 10 11 13 14 10 8 8 8 9 9 10 2 3 2 10 11 8 8 7 7 5
4 4 5 5 4 5 5 6 5 6 5 7 6 7 8 9 8 10 11 10 10 12 11 12 13 10 12 9 8 11 10 9 8 5 3 4 4 10 9 10 7 5 5
4 5 5 4 5 6 7 7 6 6 7 6 7 8 9 9 9 10 11 10 11 12 11 12 13 11 11 8 9 9 8 7 8 4 5 3 2 6 7 7 9 6 4
7 7 7 6 6 7 7 7 7 7 7 6 7 8 8 8 8 7 7 8 8 9 9 10 10 10 12 10 10 10 8 8 7 6 3 5 3 7 8 11 5 1 3
8 8 7 7 6 6 7 7 7 7 7 7 7 7 6 6 5 7 7 8 9 9 7 8 9 10 13 13 9 9 10 9 8 7 6 5 6 10 12 6 5 5 3
8 8 8 8 8 7 7 8 7 7 7 6 7 7 6 5 13 15 11 8 8 8 8 7 6 7 9 16 20 20 18 14 13 9 7 9 9 10 9 10 9 6 4
7 8 8 8 9 9 7 7 8 8 6 7 7 6 8 7 14 16 16 7 8 9 9 7 6 6 8 8 16 17 19 22 20 12 12 10 10 14 12 11 8 7 5
6 6 6 7 9 9 9 8 7 5 6 6 6 7 6 7 14 16 15 8 7 8 8 9 9 8 10 10 9 9 9 10 11 7 11 12 9 13 13 10 11 7 5
7 7 6 5 7 8 10 10 9 6 5 6 4 6 6 6 13 14 12 6 7 7 6 7 8 8 14 18 11 10 8 6 10 9 14 16 15 19 13 9 8 8 3
7 9 9 8 6 7 6 7 4 3 6 4 6 5 7 8 11 14 12 5 7 6 5 6 11 9 17 21 12 12 11 9 9 8 9 12 13 15 20 9 8 9 4
5 6 8 7 7 8 7 4 5 4 5 6 6 5 6 6 8 13 15 6 7 5 5 4 5 16 18 20 17 12 12 11 13 8 6 6 7 7 6 5 7 8 4
6 6 6 6 5 5 6 5 5 6 6 5 4 6 3 5 9 12 15 17 12 6 5 3 4 15 17 20 16 18 19 14 7 7 7 5 5 5 5 5 5 4 3
6 7 6 6 6 4 4 6 5 3 5 6 5 6 5 3 4 13 15 16 15 7 5 9 13 16 18 17 19 20 15 8 8 7 7 6 5 5 7 6 6 7 7
9 9 8 7 9 6 4 3 4 4 5 5 5 6 5 3 4 4 5 5 10 7 9 7 9 9 10 10 11 11 7 7 8 8 6 4 5 5 4 3 3 3 3
8 8 10 7 7 8 5 5 5 4 5 5 5 5 6 6 4 7 6 4 4 6 5 3 4 5 7 7 6 7 7 7 5 4 5 5 5 5 4 3 3 2 2
8 7 7 9 8 5 7 8 10 13 14 13 14 11 3 11 12 10 10 9 13 13 2 3 4 5 6 7 7 8 7 8 6 6 5 6 7 7 6 4 3 3 3
9 9 7 8 7 7 4 4 6 6 7 6 8 9 9 7 9 7 6 8 12 12 3 1 0 3 2 5 6 4 4 5 7 6 6 7 6 6 8 6 4 3 2
9 11 9 8 8 6 4 4 3 2 2 3 4 7 4 5 8 5 5 5 4 5 4 2 2 3 3 3 3 3 3 4 3 4 5 6 6 6 5 6 7 5 5
8 7 8 8 9 6 3 3 3 2 2 2 2 3 8 11 10 1 3 1 2 2 3 3 3 3 2 3 3 4 4 5 4 5 4 5 6 6 5 5 5 7 6
7 11 11 8 7 4 3 2 2 2 0 1 3 2 3 4 4 4 5 4 2 2 4 3 3 3 3 4 3 4 3 3 4 4 4 4 5 5 5 6 6 5 5
6 7 9 7 3 2 2 2 1 1 2 2 1 4 10 4 4 5 5 6 6 6 5 4 4 3 3 3 2 3 3 3 2 3 3 3 4 4 4 4 5 5 4
6 6 4 3 3 3 3 3 2 2 3 3 2 4 13 5 5 5 5 5 4 4 4 4 4 4 4 4 2 2 2 1 1 2 3 3 3 3 4 4 4 3 4
5 5 4 3 3 4 5 4 4 3 4 4 3 4 5 5 4 5 4 4 4 4 4 5 4 4 4 4 3 3 2 2 2 2 3 3 3 4 3 3 4 3 4
5 5 5 4 4 4 5 4 4 6 5 4 4 5 5 4 4 5 4 3 3 4 4 4 4 4 3 2 2 2 2 1 1 2 3 3 4 4 3 2 4 4 5
5 5 5 5 5 5 5 4 4 5 5 5 5 4 3 4 4 4 3 3 3 3 4 3 3 3 3 3 3 3 3 4 2 2 3 3 4 6 4 3 3 3 3
5 5 5 4 4 4 4 4 4 4 4 4 4 4 4 3 3 2 2 2 2 2 2 2 2 3 3 2 3 3 3 3 2 3 3 4 4 3 3 4 6 4 5
Wind_Direction
4 357 356 329 312 293 280 282 250 226 223 221 217 219 226 220 219 221 231 228 221 224 215 212 218 217 219 209 205 208 216 214 238 114 165 154 180 185 171 177 192 181 195
342 340 329 333 321 293 279 270 260 253 233 230 220 220 223 233 222 219 225 223 218 225 222 221 222 219 220 206 191 201 207 203 200 170 147 160 172 182 162 173 182 176 167
343 330 317 306 291 286 274 268 264 263 252 230 214 218 215 217 223 226 228 226 225 230 224 220 223 215 218 201 201 203 201 192 193 150 149 145 127 167 164 170 181 163 177
356 341 331 320 298 284 282 276 262 253 257 242 230 230 216 213 220 222 221 230 232 231 228 223 224 213 218 202 201 199 187 182 181 161 137 153 129 165 168 171 155 116 152
352 346 327 319 305 295 290 282 269 257 249 244 243 232 222 208 214 218 225 234 234 235 226 224 220 217 215 201 191 189 178 185 176 162 154 150 152 162 176 161 154 154 161
342 330 328 330 327 320 308 298 290 275 255 243 244 237 231 232 231 228 218 217 221 224 235 227 216 206 214 206 205 198 190 181 179 172 165 169 166 167 164 167 154 154 166
338 329 330 330 321 315 307 302 292 284 271 248 239 223 232 228 238 237 231 217 220 220 217 209 206 202 194 198 214 211 209 206 191 167 165 166 162 177 166 164 165 174 174
321 321 327 330 324 319 317 309 298 280 266 259 251 240 239 246 243 237 230 220 222 223 217 210 207 196 195 185 178 187 185 179 172 157 165 173 174 169 171 174 170 142 94
329 320 315 319 315 319 318 316 311 294 282 264 255 250 237 246 249 245 239 216 228 229 218 202 202 199 198 187 172 165 154 141 169 166 176 161 154 159 154 134 155 156 135
324 318 315 315 301 298 293 299 282 263 274 282 277 252 250 253 248 240 234 208 222 216 204 206 206 201 199 195 173 164 160 155 140 140 151 150 156 168 164 168 160 163 125
292 294 298 301 301 293 296 276 270 279 279 279 270 269 253 245 257 252 243 215 215 212 205 197 202 212 205 187 173 169 164 143 149 135 137 137 138 152 158 137 159 152 133
306 296 286 279 284 290 295 295 307 300 291 278 270 280 261 266 259 264 254 241 206 189 189 171 185 202 201 180 165 167 161 147 136 140 138 140 152 145 132 132 124 107 96
305 293 287 289 287 276 287 296 300 287 282 287 276 278 271 243 251 270 262 257 212 171 163 182 194 206 201 182 172 175 165 150 145 150 166 164 168 133 112 90 74 78 67
312 312 313 311 309 302 286 275 285 279 286 288 284 283 288 279 249 241 260 271 198 178 182 198 196 199 194 172 170 176 146 154 165 169 165 119 113 132 131 121 113 130 110
308 306 306 297 289 293 277 273 262 244 242 277 280 282 288 282 264 253 233 243 187 162 152 176 206 190 184 169 174 153 141 135 150 118 142 139 146 148 147 134 124 125 158
305 298 302 304 301 285 297 304 293 286 282 286 278 271 236 267 285 279 252 236 169 167 102 175 198 199 199 180 174 143 147 153 151 145 148 163 166 171 155 153 135 163 166
297 300 296 294 286 286 278 274 293 317 313 330 345 291 299 274 287 289 254 196 173 157 107 152 205 213 132 137 141 152 150 160 149 159 166 167 165 170 167 174 165 151 167
297 294 288 284 281 274 249 251 242 250 289 302 339 21 335 302 296 286 242 210 185 171 142 145 137 123 120 119 122 120 119 126 142 165 164 163 166 170 173 182 183 177 179
296 288 283 281 279 259 247 241 236 240 241 279 322 8 2 353 355 324 276 218 109 97 138 141 137 137 137 141 151 143 153 165 167 162 168 165 170 169 185 186 180 178 150
282 274 279 277 275 246 227 214 225 219 122 33 24 333 321 351 19 21 24 14 51 82 150 164 169 160 162 167 156 137 138 143 160 167 171 174 170 185 184 171 174 164 184
290 291 292 290 271 252 227 198 197 138 114 85 26 355 41 60 39 36 39 36 25 25 19 26 35 48 47 56 77 111 125 141 143 138 136 154 155 181 165 173 173 178 153
295 294 302 321 339 4 40 49 62 90 88 76 24 11 40 44 41 46 49 38 31 31 17 42 52 44 43 49 57 85 114 155 144 142 148 157 163 164 159 160 157 157 156
316 327 333 356 12 26 41 27 31 53 69 60 46 46 44 47 47 53 44 29 26 30 18 27 43 46 36 41 38 48 113 189 196 151 150 153 165 163 160 166 166 153 161
355 5 2 10 29 42 44 39 36 41 51 52 46 42 41 46 39 42 41 31 32 27 29 33 42 49 39 41 47 54 73 92 109 172 170 163 169 157 150 150 172 174 168
18 21 24 24 30 36 39 38 38 42 46 46 47 44 34 40 41 27 22 22 24 17 11 9 9 15 29 23 17 11 341 12 118 124 125 138 168 175 165 155 143 136 146
20 30 28 25 33 33 40 41 42 37 34 33 37 41 34 30 22 8 359 353 359 339 331 337 328 319 323 313 296 284 277 273 202 167 142 136 149 167 150 157 168 164 168